Krabi, Thailand

10:36 AM +07 on April 24, 2018 (GMT +0700)
Krabi

Weather History for VTSG - March, 2014

Change the Weather History Date:

Monday, March 10, 2014

  Actual Average (VTSP) Record (VTSP)
Temperature  
Mean Temperature 82 °F -  
Max Temperature 96 °F 93 °F 100 °F (2002)
Min Temperature 68 °F 76 °F 71 °F (2005)
Cooling Degree Days 17    
Growing Degree Days 32 (Base 50)    
Moisture  
Dew Point 64 °F    
Average Humidity 58    
Maximum Humidity 94    
Minimum Humidity 30    
Precipitation  
Precipitation 0.00 in - - ()
Sea Level Pressure  
Sea Level Pressure 29.90 in    
Wind  
Wind Speed 6 mph ()    
Max Wind Speed 14 mph    
Max Gust Speed 24 mph    
Visibility 5.3 miles    
Events      
Averages and records for this station are not official NWS values.
T = Trace of Precipitation, MM = Missing Value Source: Averaged Metar Reports

Daily Weather History Graph

Daily Weather History Graph

Search for Another Location

Airport or City:

Astronomy

Mar. 10, 2014 Rise Set
Actual Time 6:33 AM +07 6:35 PM +07
Civil Twilight 6:12 AM +07 6:56 PM +07
Nautical Twilight 5:48 AM +07 7:20 PM +07
Astronomical Twilight 5:24 AM +07 7:44 PM +07
Moon 1:37 PM +07 (3/10) 1:35 AM +07 (3/10)
Length of Visible Light 12h 43m
Length of Day
12h 01m
Waxing Gibbous, 65% of the Moon is Illuminated
Mar 10
Waxing Gibbous
Mar 17
Full
Mar 24
Last Quarter
Mar 31
New
Apr 7
First Quarter

Hourly Weather History & Observations

Time (+07) Temp. Heat Index Dew Point Humidity Pressure Visibility Wind Dir Wind Speed Gust Speed Precip Events Conditions
2:00 AM 68.0 °F - 66.2 °F 94% 29.89 in 4.3 mi Calm Calm - N/A   Unknown
3:00 AM 68.0 °F - 66.2 °F 94% 29.89 in 3.7 mi Variable 2.3 mph - N/A   Unknown
6:00 AM 68.0 °F - 66.2 °F 94% 29.89 in 3.1 mi NNE 5.8 mph - N/A   Mist
7:00 AM 68.0 °F - 66.2 °F 94% 29.92 in 2.2 mi NE 3.5 mph - N/A   Mist
8:00 AM 73.4 °F - 68.0 °F 83% 29.95 in 5.0 mi ENE 4.6 mph - N/A   Unknown
9:00 AM 80.6 °F 83.9 °F 69.8 °F 70% 29.98 in - NE 5.8 mph - N/A   Clear
10:00 AM 87.8 °F 90.4 °F 66.2 °F 49% 29.98 in 6.2 mi East 11.5 mph - N/A   Partly Cloudy
11:00 AM 87.8 °F 89.4 °F 64.4 °F 46% 29.95 in 6.2 mi ENE 10.4 mph - N/A   Scattered Clouds
12:00 PM 91.4 °F 92.1 °F 62.6 °F 38% 29.92 in 6.2 mi NE 10.4 mph - N/A   Scattered Clouds
1:00 PM 95.0 °F 95.2 °F 60.8 °F 32% 29.89 in 6.2 mi ENE 12.7 mph 24.2 mph N/A   Scattered Clouds
2:00 PM 96.8 °F 97.1 °F 60.8 °F 30% 29.86 in 6.2 mi ENE 11.5 mph - N/A   Scattered Clouds
3:00 PM 96.8 °F 97.1 °F 60.8 °F 30% 29.83 in 6.2 mi ENE 11.5 mph - N/A   Scattered Clouds
4:00 PM 95.0 °F 95.2 °F 60.8 °F 32% 29.83 in 6.2 mi East 13.8 mph - N/A   Partly Cloudy
5:00 PM 93.2 °F 94.1 °F 62.6 °F 36% 29.83 in 6.2 mi East 11.5 mph - N/A   Partly Cloudy
6:00 PM 89.6 °F 90.1 °F 62.6 °F 40% 29.83 in - East 10.4 mph - N/A   Clear
7:00 PM 84.2 °F 84.4 °F 60.8 °F 45% 29.86 in 5.0 mi East 5.8 mph - N/A   Unknown
8:00 PM 80.6 °F 81.8 °F 62.6 °F 54% 29.89 in 5.6 mi East 5.8 mph - N/A   Unknown
9:00 PM 78.8 °F - 62.6 °F 57% 29.95 in 5.6 mi East 5.8 mph - N/A   Unknown
10:00 PM 75.2 °F - 62.6 °F 65% 29.95 in 5.6 mi NE 3.5 mph - N/A   Unknown
11:00 PM 73.4 °F - 62.6 °F 69% 29.95 in 5.6 mi NNE 3.5 mph - N/A   Unknown